Regional Weather Roundup
Issued by NWS Northern Indiana

Home | Current Version | Previous Version | Graphics & Text | Print | Product List | Glossary On
Versions: 1 2 3 4 5 6 7 8 9 10 11 12 13 14 15 16 17 18 19 20 21 22 23 24 25 26 27 28 29 30 31 32 33 34 35 36 37 38 39 40 41 42 43 44 45 46 47 48 49 50
000
ASUS43 KIWX 051100
RWRIWX

KIWX WEATHER ROUNDUP
NATIONAL WEATHER SERVICE NORTHERN INDIANA
600 AM EST MON DEC 05 2016

NOTE: "FAIR" INDICATES FEW OR NO CLOUDS BELOW 12,000 FEET WITH NO
SIGNIFICANT WEATHER AND/OR OBSTRUCTIONS TO VISIBILITY.

* THESE STATIONS ARE NOT UNDER NWS QUALITY CONTROL. THEY ALSO MAY NOT
  REPORT WEATHER SUCH AS PRECIPITATION OR FOG.

INZ001>027-051200-
NORTHERN INDIANA

CITY           SKY/WX    TMP DP  RH WIND       PRES   REMARKS
GARY*          CLOUDY    34  32  93 W12       30.02R WCI  25
SOUTH BEND     CLOUDY    32  30  92 SW9       30.01F WCI  24
GOSHEN         CLOUDY    33  29  85 W9        30.01F WCI  25
ANGOLA*        CLOUDY    34  27  75 W9        29.99R WCI  26
FORT WAYNE     CLOUDY    33  29  85 W15G23    30.03R WCI  23
PERU/GRISSOM   CLOUDY    32  32  99 W8        30.02S WCI  25

$$
INZ028>050-051200-
CENTRAL INDIANA

CITY           SKY/WX    TMP DP  RH WIND       PRES   REMARKS
LAFAYETTE      CLOUDY    32  31  96 W3        30.05S
KOKOMO*        CLOUDY    33  31  92 W9        30.04S WCI  25
MUNCIE*        CLOUDY    35  30  82 W10       30.05R WCI  27
INDIANAPOLIS   CLOUDY    34  30  85 W7        30.06R WCI  28

$$
MIZ043>046-050>051-056>058-064>065-071>073-077>080-051200-
SOUTHWEST LOWER MICHIGAN

CITY           SKY/WX    TMP DP  RH WIND       PRES   REMARKS
BATTLE CREEK   CLOUDY    34  33  96 W13       29.97R WCI  25
BENTON HARBOR  CLOUDY    36  31  82 W12       30.00R
COLDWATER*     CLOUDY    34  32  93 W10       29.98R WCI  26
HILLSDALE*     CLOUDY    32  32 100 W12G18    29.96R WCI  23
HOLLAND        CLOUDY    37  32  82 W14       29.96R
GRAND RAPIDS   CLOUDY    34  31  88 W10       29.95R WCI  26
KALAMAZOO      CLOUDY    35  31  85 SW10      29.98R WCI  27
STURGIS*       CLOUDY    33  31  92 W8        29.98R WCI  27
THREE RIVERS*  CLOUDY    35  33  93 W5        29.98S WCI  31

$$
OHZ001>008-015>018-024>025-051200-
NORTHWEST OHIO

CITY           SKY/WX    TMP DP  RH WIND       PRES   REMARKS
DEFIANCE       CLOUDY    35  29  78 VRB7      30.03R WCI  29
FINDLAY        CLOUDY    35  30  82 W13       30.02R WCI  26
TOLEDO EXPRESS CLOUDY    35  33  92 W15       30.00R WCI  25
TOLEDO METCALF CLOUDY    37  34  89 W10       30.00R
LIMA           CLOUDY    33  31  92 W10       30.03R WCI  25

$$
AND FOR LAKE MICHIGAN COASTAL AND OPEN LAKE BUOY OBSERVATIONS

STATION/POSITION TEMP    WIND        PRES    VSBY  WAVE
                 AIR SEA DIR/SP/G                  HT/PER
                 (F)     (DEG/KT/KT) (MB)    (MI)  (FT/S)
CALUMET HARBOR    33     240/  7/ 11 1015.5S
BURNS HARBOR      34     220/ 11/ 14 1016.9S

$$
&&




USA.gov is the U.S. government's official web portal to all federal, state and local government web resources and services.